Location: Izaut
(43.0162°N, 0.7544°E)
Time: 10:58:26
(UTC+00:00)

Daily predictions for brighter satellites

Satellite Brightness Start Highest point End
(mag) Time Altitude Azimuth Time Altitude Azimuth Time Altitude Azimuth
SL-16 R/B 2.7 18:52:07 10° SSW 18:57:46 70° WNW 19:03:27 10° NNE
Terra 3.6 18:57:08 10° E 18:59:45 15° ENE 19:02:22 10° NNE
Atlas Centaur 2 4.0 18:56:20 10° SW 19:00:16 19° S 19:04:47 10° SE
Meteor 1-22 Rocket 4.3 18:57:07 10° S 19:02:36 64° E 19:08:22 10° NNE
Cosmos 1898 Rocket 3.9 18:58:19 10° S 19:03:12 42° ESE 19:08:06 10° NE
CZ-4 R/B 2.6 19:01:23 10° ESE 19:04:22 22° ENE 19:07:21 10° NNE
PSLV R/B 3.8 19:01:05 10° S 19:05:06 70° WSW 19:09:11 10° NNW
Resurs 01 Rocket 2.1 19:01:46 10° S 19:06:08 65° W 19:10:29 10° NNW
Meteor 2-13 Rocket 4.5 19:00:05 10° N 19:06:17 85° E 19:12:27 10° S
Cosmos 2333 4.2 19:07:03 10° SSW 19:12:33 66° ESE 19:18:07 10° NNE
Cosmos 372 Rocket 4.0 19:08:49 10° S 19:13:59 71° ESE 19:19:12 10° NNE
Tiangong -0.6 19:11:54 10° W 19:14:37 27° SSW 19:17:19 10° SE
Meteor 1-24 Rocket 3.8 19:09:58 10° N 19:15:22 59° ENE 19:20:55 10° SSE
Cosmos 1538 Rocket 4.1 19:10:24 10° NNW 19:15:30 59° ENE 19:20:34 10° SSE
CENTAUR R/B 3.9 19:09:09 10° NW 19:17:36 63° WSW 19:26:58 10° SSE
Cosmos 1844 4.2 19:11:57 10° NNW 19:17:41 66° WSW 19:23:24 10° SSE
Cosmos 2219 Rocket 2.3 19:13:01 10° S 19:18:26 54° ESE 19:23:53 10° NNE
SPOT 5 2.9 19:14:55 10° SSE 19:19:36 55° ENE 19:24:05 10° N
Cosmos 2074 Rocket 4.0 19:15:42 10° S 19:21:50 69° E 19:28:03 10° NNE
CZ-4B R/B 4.1 19:18:38 10° SE 19:21:59 41° ENE 19:25:28 10° N
Meteor 1-31 Rocket 3.0 19:21:19 10° SE 19:24:38 41° ENE 19:27:59 10° N
Cosmos 1937 Rocket 3.7 19:19:40 10° S 19:24:43 48° ESE 19:29:48 10° NNE
COSMOS 2428 3.7 19:31:26 10° SSE 19:35:56 25° ESE 19:40:28 10° NE
USA 234 3.7 19:30:12 10° NE 19:36:41 66° NW 19:43:09 10° WSW
IRAS Rocket 4.2 19:32:25 10° SSE 19:37:55 79° ENE 19:43:26 10° NNW
Cosmos 1953 2.7 19:34:51 10° SSW 19:38:22 58° W 19:41:55 10° N
Meteor 1-15 Rocket 4.2 19:32:54 10° S 19:38:27 90° ESE 19:44:04 10° N
CZ-4B R/B 3.8 19:35:07 13° SE 19:39:33 39° ENE 19:44:43 10° N
CZ-4B DEB 4.4 19:34:47 10° SSE 19:40:04 55° ENE 19:45:25 10° N
CSL-04 Rocket 3.7 19:34:50 10° SSE 19:40:21 82° ENE 19:45:56 10° NNW
Cosmos 2278 Rocket 3.9 19:41:12 10° N 19:44:57 18° NE 19:47:49 13° E
Cosmos 1610 Rocket 4.5 19:40:37 10° S 19:46:51 65° E 19:53:03 10° NNE
Cosmos 2333 Rocket 3.9 19:42:02 10° WSW 19:47:14 36° NW 19:52:26 10° N
NOSS 3-2 (C) 4.3 19:42:52 10° NNW 19:50:04 56° NE 19:56:23 19° ESE
Iridium 82 4.4 19:47:53 10° N 19:50:54 66° W 19:53:49 10° S
Cosmos 1703 Rocket 3.5 19:51:13 10° N 19:55:31 65° E 19:58:41 17° SSE
Cosmos 1470 Rocket 3.8 19:51:25 10° SSW 19:55:48 70° W 20:00:10 10° N
Spot 2 Rocket 4.5 19:53:55 21° ESE 19:56:00 28° ENE 20:00:16 10° N
BREEZE-M DEB (TANK) 3.6 19:53:46 10° WNW 19:56:01 27° N 19:59:33 10° ENE
Geosat 3.9 19:51:37 10° NNE 19:56:39 84° ESE 20:01:38 10° SSW
Lacrosse 5 rocket 0.5 19:54:14 10° SW 19:57:27 83° SE 20:00:38 10° NE
NOSS 3-2 (A) 4.3 19:50:59 10° NW 19:58:33 75° WSW 20:06:45 13° SSE
ARIANE 6 FM1 Upper Stage 3.9 19:54:46 10° WSW 19:58:43 42° NW 20:02:37 10° NNE
Meteor 2-5 Rocket 4.1 19:54:58 10° NNW 20:00:27 65° W 20:05:57 10° S
ERS-1 Rocket 2.9 19:57:46 18° SSE 20:01:28 65° ENE 20:06:25 10° N
Cosmos 1933 Rocket 3.5 19:58:58 10° S 20:03:14 60° E 20:07:34 10° NNE
Nadezhda 3 Rocket 4.1 19:59:43 10° N 20:05:53 76° W 20:12:00 10° S
Cosmos 2218 Rocket 4.4 20:06:05 21° SE 20:09:35 40° E 20:15:14 10° NNE
Cosmos 1943 Rocket 3.2 20:05:59 10° N 20:10:58 30° NE 20:12:58 24° E
Meteor 1-12 Rocket 4.3 20:06:36 10° S 20:12:33 85° E 20:18:36 10° N
Helios 1A Rocket 3.6 20:09:49 10° N 20:12:55 42° WNW 20:15:58 10° SW
YAOGAN 11 4.5 20:09:34 10° NNE 20:13:32 37° E 20:13:55 36° ESE
In-Cosmos 22 Rocket 4.2 20:11:32 10° N 20:16:48 55° ENE 20:19:02 32° SE
OPS 6432 4.1 20:16:20 10° NW 20:19:41 79° NE 20:20:04 66° ESE
Okean-O 3.1 20:20:36 38° E 20:21:20 42° ENE 20:25:27 10° N
Cosmos 494 Rocket 4.0 20:19:40 10° NNW 20:24:48 59° ENE 20:26:29 39° SE
Cosmos 962 Rocket 4.4 20:18:47 10° S 20:25:03 82° E 20:31:17 10° N
Cosmos 2360 Rocket 4.2 20:21:18 10° WSW 20:26:09 29° NW 20:31:03 10° N
CBERS 1 LM4 rocket 4.5 20:24:04 22° S 20:27:04 71° WSW 20:31:46 10° NNW
Cosmos 1869 Rocket 3.4 20:30:47 26° S 20:33:12 90° W 20:37:37 10° N
ADEOS 3.7 20:32:48 26° S 20:35:46 74° WSW 20:41:00 10° NNW
Terra 2.0 20:34:16 28° S 20:36:43 66° W 20:41:24 10° NNW
CZ-4 R/B 3.2 20:35:04 10° SSW 20:38:16 26° W 20:41:30 10° NW
BREEZE-M DEB (TANK) 4.3 20:38:21 10° WSW 20:42:13 79° NNW 20:58:01 10° ENE
Okean O Rocket 1.4 20:43:57 68° SE 20:44:25 78° ENE 20:48:48 10° N
Cosmos 2237 Rocket 3.1 20:47:31 32° ENE 20:47:31 32° ENE 20:51:11 10° NE
Cosmos 1980 4.3 20:47:57 37° ENE 20:47:57 37° ENE 20:52:03 10° NE
Cosmos 2242 Rocket 4.2 20:42:34 10° N 20:46:21 42° ENE 20:46:21 42° ENE
SL-08 R/B 3.7 20:44:30 10° N 20:49:21 64° WNW 20:53:56 11° SSW
Cosmos 2322 3.8 20:44:13 10° SSW 20:49:54 75° WNW 20:55:39 10° NNE
CZ-4B R/B 4.1 20:51:35 27° NNE 20:51:35 27° NNE 20:53:36 10° N
ASTEX 1 3.6 20:50:47 50° ENE 20:50:47 50° ENE 20:55:24 10° N
Cosmos 2341 Rocket 4.0 20:46:43 16° S 20:51:50 83° W 20:58:09 10° N
IRS-1A Rocket 4.5 20:52:14 34° S 20:54:38 67° WSW 21:00:15 10° NNW
Meteor 1-21 Rocket 4.1 20:54:08 10° N 20:59:45 87° W 21:01:08 54° S
Cosmos 1680 Rocket 4.1 20:56:01 10° NNW 21:01:03 51° WSW 21:02:37 38° SSW
SPOT 3 Rocket 3.7 21:02:11 57° ENE 21:02:13 57° ENE 21:07:18 10° N
Cosmos 2219 Rocket 4.4 20:58:10 10° WSW 21:02:41 25° NW 21:07:14 10° N
Spot 3 4.5 21:03:36 68° SSE 21:04:20 86° ENE 21:09:41 10° NNW
Meteor 2-14 Rocket 4.4 21:02:12 10° N 21:08:18 82° W 21:09:57 51° S
Meteor 2-21 Rocket 4.5 21:08:38 10° N 21:14:41 60° E 21:14:50 59° E
USA 245 4.3 21:17:15 45° N 21:17:15 45° N 21:20:28 10° NNW
SL-24 R/B - RUBIN 2 4.3 21:11:58 10° NW 21:16:05 48° WSW 21:16:05 48° WSW
COSMOS 2428 3.5 21:14:15 10° SW 21:19:48 51° WNW 21:25:23 10° NNE
Cosmos 2369 Rocket 4.2 21:17:24 10° N 21:20:26 15° NE 21:20:57 14° NE
NOSS 0 Rocket 4.0 21:16:27 10° SSW 21:22:40 75° WNW 21:28:56 10° NNE
Ariane Rocket 3.2 21:26:52 61° NNE 21:26:52 61° NNE 21:31:09 10° N
Cosmos 1727 Rocket 3.8 21:21:48 10° N 21:28:12 81° E 21:28:33 78° SE
Cosmos 2278 Rocket 2.1 21:24:04 10° NNW 21:29:39 84° WNW 21:29:39 84° WNW
USA 238 DEB 4.0 21:23:26 10° NNW 21:30:52 68° NE 21:32:16 58° E
USA 238 4.0 21:23:36 10° NNW 21:31:02 67° NE 21:32:26 58° E
Lacrosse 5 rocket 3.8 21:32:30 10° WNW 21:34:04 15° NW 21:34:04 15° NW
Meteor 2-8 Rocket 4.4 21:47:10 80° NNW 21:47:10 80° NNW 21:52:55 10° N
SL-16 R/B 4.3 21:58:05 15° NE 21:58:05 15° NE 21:59:10 10° NE
Cosmos 1943 Rocket 3.0 21:49:28 10° NW 21:54:29 43° W 21:54:29 43° W
SeaSat 1 3.7 21:59:30 37° N 21:59:30 37° N 22:02:41 10° NNW
Cosmos 1934 Rocket 4.3 22:03:44 59° NNE 22:03:44 59° NNE 22:08:47 10° N
Cosmos 2123 Rocket 4.2 21:58:28 10° N 22:03:50 67° N 22:03:50 67° N
USA 59 Rocket 2.6 22:02:17 10° NNW 22:02:48 14° NNW 22:02:48 14° NNW
NOSS 3-4 (A) 3.9 22:10:29 48° NW 22:10:29 48° NW 22:15:47 10° NNE
NOSS 3-4 (C) 3.9 22:11:02 49° NNW 22:11:02 49° NNW 22:16:19 10° NNE
Cosmos 2237 Rocket 3.6 22:29:12 33° WNW 22:30:02 34° NW 22:35:12 10° N
Cosmos 2369 Rocket 3.7 22:59:46 10° NNW 23:02:43 32° NNW 23:02:43 32° NNW
SJ 16-02 4.5 23:33:05 10° N 23:33:16 11° N 23:33:16 11° N
SL-16 R/B 3.9 23:39:53 28° NNW 23:39:53 28° NNW 23:43:15 10° N
CZ-2C R/B 4.5 23:44:18 28° NNE 23:44:18 28° NNE 23:47:06 10° N
ACS3 Solar Sail 4.1 23:39:32 10° ENE 23:40:25 12° ENE 23:40:25 12° ENE
